Regional Weather Roundup
Issued by NWS

Home | Current Version | Previous Version | Graphics & Text | Print | Product List | Glossary On
Versions: 1 2 3 4 5 6 7 8 9 10 11 12 13 14 15 16 17 18 19 20 21 22 23 24 25 26 27
000
ASUS45 KCYS 210510
RWRWY

WYOMING REGIONAL WEATHER ROUNDUP
NATIONAL WEATHER SERVICE CHEYENNE WY
1100 PM MDT SUN AUG 20 2017

NOTE:  "FAIR" INDICATES FEW OR NO CLOUDS BELOW 12,000 FEET
WITH NO SIGNIFICANT WEATHER AND/OR OBSTRUCTIONS TO VISIBILITY.

WYZ001-210600-
YELLOWSTONE NATIONAL PARK

CITY           SKY/WX    TMP DP  RH WIND       PRES   REMARKS
LK YELLOWSTONE   N/A     46  38  73 CALM      30.30R
W YELLOWSTONE  NOT AVBL

$$
WYZ002>013-054>058-071-098>099-210600-
NORTHERN WYOMING

CITY           SKY/WX    TMP DP  RH WIND       PRES   REMARKS
JACKSON        FAIR      50  29  44 N6        30.20R
CODY           FAIR      64  31  28 CALM      30.13R
GREYBULL       FAIR      74  33  22 NW10      29.99R
WORLAND        FAIR      66  40  38 W7        30.01R
SHERIDAN       FAIR      66  39  37 W10       30.04R
BUFFALO        FAIR      69  34  27 NW14      30.09R
GILLETTE       FAIR      67  50  54 W6        30.01R
HULETT         FAIR      66  52  59 CALM      30.02R
NEWCASTLE      FAIR      70  46  43 SE18G26   30.02S

$$
WYZ014>020-022>026-101>103-210600-
CENTRAL WYOMING

CITY           SKY/WX    TMP DP  RH WIND       PRES   REMARKS
BIG PINEY      FAIR      53  31  42 CALM      30.25R
PINEDALE       FAIR      50  32  50 NW7       30.26S
DUBOIS         FAIR      55  25  30 NW10      30.23R
LANDER           N/A    N/A N/A N/A MISG      30.11R
RIVERTON       FAIR      69  35  28 NE10      30.11R
CASPER         FAIR      69  39  33 NW13      30.07R
DOUGLAS        FAIR      72  40  31 S9        30.04R

$$
WYZ021-027>030-104>119-210600-
SOUTHERN WYOMING

CITY           SKY/WX    TMP DP  RH WIND       PRES   REMARKS
EVANSTON       FAIR      65  33  30 S6        30.25R
KEMMERER         N/A     61  30  31 N7        30.26S
FORT BRIDGER   FAIR      62  36  38 W7        30.27S
ROCK SPRINGS   FAIR      70  33  25 W8        30.22R
RAWLINS        FAIR      64  37  36 CALM      30.22R
SARATOGA       FAIR      57  37  47 S10       30.24S
LARAMIE        FAIR      58  38  47 S7        30.24S
CHEYENNE       FAIR      64  45  49 S6        30.18R
TORRINGTON     FAIR      66  61  84 E7        30.02R
PINE BLUFFS    FAIR      68  61  77 S5        30.11S

$$




USA.gov is the U.S. government's official web portal to all federal, state and local government web resources and services.